User: anonymous   Login
Location: *
(10.4782°N, 67.2163°W)
Time: 10:12:53
(UTC+00:00)
Language:

Sylda 5 - Orbit

View from above orbital plane
View from above orbital plane
View from above satellite
View from above satellite

Ground track
Ground track

The orbit data is extracted from the following two-line orbital elements,

1 26109U 00016C   24200.65457418  .00000317  00000-0  39113-2 0  9993
2 26109   6.3251 183.8336 7141034  36.3129 355.5463  2.27748143201791
Epoch (UTC): 18 July 2024 15:42:35
Eccentricity: 0.7141034
inclination: 6.3251°
perigee height: 598 km
apogee height: 35449 km
right ascension of ascending node: 183.8336°
argument of perigee: 36.3129°
revolutions per day: 2.27748143
mean anomaly at epoch: 355.5463°
orbit number at epoch: 20179

The dashed part of the orbit path shows where the satellite is in the earth's shadow,  

DLR